Weather History for PHNL - January, 2013

Change the Weather History Date:

Saturday, January 19, 2013

  Actual Average Record
Temperature  
Mean Temperature 71 °F 73 °F  
Max Temperature 81 °F 80 °F 85 °F (1986)
Min Temperature 60 °F 66 °F 59 °F (1980)
Degree Days  
Heating Degree Days 0 0  
Month to date heating degree days 0 0  
Since 1 July heating degree days 0 0  
Cooling Degree Days 6 8  
Month to date cooling degree days 124 154  
Year to date cooling degree days 124 154  
Growing Degree Days 20 (Base 50)    
Moisture  
Dew Point 54 °F    
Average Humidity 60    
Maximum Humidity 84    
Minimum Humidity 36    
Precipitation  
Precipitation 0.00 in 0.07 in 4.15 in (1952)
Month to date precipitation 0.65 1.56  
Year to date precipitation 0.65 1.56  
Snow  
Snow 0.00 in - - ()
Month to date snowfall 0.0  
Since 1 July snowfall 0.0  
Snow Depth 0.00 in    
Sea Level Pressure  
Sea Level Pressure 29.98 in    
Wind  
Wind Speed 9 mph (NNW)    
Max Wind Speed 22 mph    
Max Gust Speed 31 mph    
Visibility 10 miles    
Events      
T = Trace of Precipitation, MM = Missing Value Source: NWS Daily Summary

Daily Weather History Graph

Daily Weather History Graph

Search for Another Location

Airport or City:

Trip Planner

Search our weather history database for the weather conditions in past years. The results will help you decide how hot, cold, wet, or windy it might be!

Date:

Astronomy

Jan. 19, 2013 Rise Set
Actual Time 7:11 AM HST 6:13 PM HST
Civil Twilight 6:48 AM HST 6:37 PM HST
Nautical Twilight 6:20 AM HST 7:04 PM HST
Astronomical Twilight 5:54 AM HST 7:31 PM HST
Moon 12:39 PM HST (1/19) 1:06 AM HST (1/19)
Length of Visible Light 11h 49m
Length of Day
11h 02m
First Quarter, 59% of the Moon is Illuminated
Jan 19
First Quarter
Jan 26
Full
Feb 3
Last Quarter
Feb 9
New
Feb 17
First Quarter

Hourly Weather History & Observations

Time (HST) Temp. Dew Point Humidity Pressure Visibility Wind Dir Wind Speed Gust Speed Precip Events Conditions
12:53 AM 66.9 °F 53.1 °F 61% 29.95 in 10.0 mi North 4.6 mph - N/A   Partly Cloudy
1:53 AM 66.0 °F 54.0 °F 65% 29.96 in 10.0 mi North 4.6 mph - N/A   Partly Cloudy
2:53 AM 64.0 °F 54.0 °F 70% 29.94 in 10.0 mi West 4.6 mph - N/A   Partly Cloudy
3:53 AM 61.0 °F 55.0 °F 81% 29.94 in 10.0 mi West 3.5 mph - N/A   Partly Cloudy
4:53 AM 61.0 °F 55.0 °F 81% 29.96 in 10.0 mi West 5.8 mph - N/A   Partly Cloudy
5:53 AM 61.0 °F 55.0 °F 81% 29.96 in 10.0 mi Calm Calm - N/A   Partly Cloudy
6:53 AM 62.1 °F 55.0 °F 78% 29.98 in 10.0 mi Calm Calm - N/A   Scattered Clouds
7:53 AM 62.1 °F 55.0 °F 78% 30.00 in 10.0 mi WNW 6.9 mph - N/A   Partly Cloudy
8:53 AM 68.0 °F 54.0 °F 61% 30.01 in 10.0 mi NW 3.5 mph - N/A   Scattered Clouds
9:53 AM 73.9 °F 54.0 °F 50% 30.01 in 10.0 mi Variable 5.8 mph - N/A   Partly Cloudy
10:53 AM 77.0 °F 52.0 °F 42% 30.01 in 10.0 mi North 15.0 mph 23.0 mph N/A   Scattered Clouds
11:53 AM 79.0 °F 50.0 °F 36% 29.98 in 10.0 mi NW 18.4 mph - N/A   Scattered Clouds
12:53 PM 80.1 °F 52.0 °F 38% 29.96 in 10.0 mi NW 18.4 mph 26.5 mph N/A   Scattered Clouds
1:53 PM 80.1 °F 52.0 °F 38% 29.93 in 10.0 mi North 15.0 mph 25.3 mph N/A   Mostly Cloudy
2:53 PM 79.0 °F 55.0 °F 44% 29.92 in 10.0 mi NW 17.3 mph 25.3 mph N/A   Scattered Clouds
3:53 PM 77.0 °F 54.0 °F 45% 29.93 in 10.0 mi NNW 19.6 mph 24.2 mph N/A   Partly Cloudy
4:53 PM 77.0 °F 52.0 °F 42% 29.95 in 10.0 mi NNW 17.3 mph 24.2 mph N/A   Scattered Clouds
5:53 PM 73.9 °F 52.0 °F 46% 29.99 in 10.0 mi North 10.4 mph 20.7 mph N/A   Scattered Clouds
6:53 PM 71.1 °F 53.1 °F 53% 30.01 in 10.0 mi North 11.5 mph 18.4 mph N/A   Partly Cloudy
7:53 PM 70.0 °F 52.0 °F 53% 30.02 in 10.0 mi North 9.2 mph - N/A   Partly Cloudy
8:53 PM 70.0 °F 52.0 °F 53% 30.04 in 10.0 mi North 4.6 mph - N/A   Partly Cloudy
9:53 PM 69.1 °F 53.1 °F 57% 30.04 in 10.0 mi NE 3.5 mph - N/A   Partly Cloudy
10:53 PM 69.1 °F 55.9 °F 63% 30.04 in 10.0 mi NNW 5.8 mph - N/A   Partly Cloudy
11:53 PM 69.1 °F 55.9 °F 63% 30.04 in 10.0 mi NW 6.9 mph - N/A   Partly Cloudy